,,PressureMeas_1m,,PRMeasQMR101_1,,RHStat155_1m_1,,SRMeasQMS101R_1m,,TAStat155_1m_1,,GenWind_1,,GenWind_1,
2019-02-03, 00:00:06,VALID,919.289,VALID,0.0,VALID,98.231,VALID,-0.016,VALID,20.832,INVALID,360.0,VALID,0.0,
2019-02-03, 00:01:06,VALID,919.269,VALID,0.0,VALID,98.316,VALID,-0.009,VALID,20.869,VALID,49.0,VALID,0.0,
2019-02-03, 00:02:06,VALID,919.278,VALID,0.0,VALID,98.372,VALID,-0.02,VALID,20.898,INVALID,360.0,VALID,0.0,
2019-02-03, 00:03:06,VALID,919.276,VALID,0.0,VALID,98.395,VALID,-0.019,VALID,20.913,INVALID,360.0,VALID,0.0,
2019-02-03, 00:04:06,VALID,919.269,VALID,0.0,VALID,98.358,VALID,-0.01,VALID,20.886,INVALID,360.0,VALID,0.0,
2019-02-03, 00:05:06,VALID,919.253,VALID,0.0,VALID,98.395,VALID,-0.016,VALID,20.888,INVALID,360.0,VALID,0.0,
2019-02-03, 00:06:06,VALID,919.261,VALID,0.0,VALID,98.468,VALID,-0.008,VALID,20.927,INVALID,360.0,VALID,0.0,
2019-02-03, 00:07:06,VALID,919.253,VALID,0.0,VALID,98.512,VALID,-0.01,VALID,20.979,INVALID,360.0,VALID,0.0,
2019-02-03, 00:08:06,VALID,919.268,VALID,0.0,VALID,98.526,VALID,-0.018,VALID,20.993,INVALID,360.0,VALID,0.0,
2019-02-03, 00:09:06,VALID,919.277,VALID,0.0,VALID,98.543,VALID,-0.015,VALID,21.003,INVALID,360.0,VALID,0.0,
2019-02-03, 00:10:06,VALID,919.301,VALID,0.0,VALID,98.594,VALID,-0.006,VALID,21.045,INVALID,360.0,VALID,0.0,
2019-02-03, 00:11:06,VALID,919.316,VALID,0.0,VALID,98.607,VALID,-0.004,VALID,21.061,INVALID,360.0,VALID,0.0,
2019-02-03, 00:12:06,VALID,919.314,VALID,0.0,VALID,98.6,VALID,-0.002,VALID,21.073,INVALID,360.0,VALID,0.0,
2019-02-03, 00:13:06,VALID,919.3,VALID,0.0,VALID,98.59,VALID,0.001,VALID,21.057,INVALID,360.0,VALID,0.0,
2019-02-03, 00:14:06,VALID,919.296,VALID,0.0,VALID,98.583,VALID,-0.001,VALID,21.036,INVALID,360.0,VALID,0.0,
2019-02-03, 00:15:06,VALID,919.275,VALID,0.0,VALID,98.575,VALID,-0.001,VALID,21.024,INVALID,360.0,VALID,0.0,
2019-02-03, 00:16:06,VALID,919.268,VALID,0.0,VALID,98.588,VALID,0.002,VALID,21.022,VALID,49.0,VALID,0.0,
2019-02-03, 00:17:06,VALID,919.276,VALID,0.0,VALID,98.601,VALID,0.008,VALID,21.019,INVALID,360.0,VALID,0.0,
2019-02-03, 00:18:06,VALID,919.272,VALID,0.0,VALID,98.584,VALID,0.019,VALID,21.015,INVALID,360.0,VALID,0.0,
2019-02-03, 00:19:06,VALID,919.255,VALID,0.0,VALID,98.64,VALID,0.017,VALID,21.022,INVALID,360.0,VALID,0.532,
2019-02-03, 00:20:06,VALID,919.241,VALID,0.0,VALID,98.64,VALID,0.018,VALID,21.027,VALID,60.0,VALID,0.814,
2019-02-03, 00:21:06,VALID,919.218,VALID,0.0,VALID,98.627,VALID,0.021,VALID,21.019,VALID,55.0,VALID,0.329,
2019-02-03, 00:22:06,VALID,919.211,VALID,0.0,VALID,98.653,VALID,-0.003,VALID,21.022,INVALID,360.0,VALID,0.159,
2019-02-03, 00:23:06,VALID,919.193,VALID,0.0,VALID,98.66,VALID,0.019,VALID,21.025,INVALID,360.0,VALID,0.022,
2019-02-03, 00:24:06,VALID,919.153,VALID,0.0,VALID,98.668,VALID,0.01,VALID,21.027,VALID,72.0,VALID,0.197,
2019-02-03, 00:25:06,VALID,919.142,VALID,0.0,VALID,98.628,VALID,0.015,VALID,21.003,VALID,80.0,VALID,0.529,
2019-02-03, 00:26:06,VALID,919.129,VALID,0.0,VALID,98.665,VALID,0.007,VALID,20.992,VALID,72.0,VALID,0.298,
2019-02-03, 00:27:06,VALID,919.116,VALID,0.0,VALID,98.658,VALID,0.018,VALID,20.99,VALID,75.0,VALID,0.836,
2019-02-03, 00:28:06,VALID,919.123,VALID,0.0,VALID,98.68,VALID,-0.0,VALID,20.987,VALID,77.0,VALID,0.501,
2019-02-03, 00:29:06,VALID,919.12,VALID,0.0,VALID,98.688,VALID,0.007,VALID,20.978,VALID,70.0,VALID,0.151,
2019-02-03, 00:30:06,VALID,919.096,VALID,0.0,VALID,98.718,VALID,-0.001,VALID,20.987,INVALID,360.0,VALID,0.166,
2019-02-03, 00:31:06,VALID,919.09,VALID,0.0,VALID,98.73,VALID,-0.004,VALID,20.983,VALID,75.0,VALID,0.189,
2019-02-03, 00:32:06,VALID,919.067,VALID,0.0,VALID,98.72,VALID,0.029,VALID,20.977,INVALID,360.0,VALID,0.173,
2019-02-03, 00:33:06,VALID,919.071,VALID,0.0,VALID,98.742,VALID,0.006,VALID,20.974,INVALID,360.0,VALID,0.033,
2019-02-03, 00:34:06,VALID,919.069,VALID,0.0,VALID,98.743,VALID,0.009,VALID,20.958,VALID,59.0,VALID,0.888,
2019-02-03, 00:35:06,VALID,919.065,VALID,0.0,VALID,98.759,VALID,0.011,VALID,20.961,VALID,63.0,VALID,0.434,
2019-02-03, 00:36:06,VALID,919.071,VALID,0.0,VALID,98.768,VALID,0.015,VALID,20.955,VALID,53.0,VALID,1.471,
2019-02-03, 00:37:06,VALID,919.08,VALID,0.0,VALID,98.741,VALID,0.024,VALID,20.941,VALID,55.0,VALID,1.854,
2019-02-03, 00:38:06,VALID,919.076,VALID,0.0,VALID,98.757,VALID,0.002,VALID,20.928,VALID,52.0,VALID,2.05,
2019-02-03, 00:39:06,VALID,919.077,VALID,0.0,VALID,98.758,VALID,0.014,VALID,20.921,VALID,53.0,VALID,1.932,
2019-02-03, 00:40:06,VALID,919.071,VALID,0.0,VALID,98.785,VALID,0.001,VALID,20.917,VALID,56.0,VALID,1.553,
2019-02-03, 00:41:06,VALID,919.055,VALID,0.0,VALID,98.783,VALID,0.002,VALID,20.915,VALID,55.0,VALID,1.725,
2019-02-03, 00:42:06,VALID,919.05,VALID,0.0,VALID,98.793,VALID,-0.004,VALID,20.905,VALID,54.0,VALID,1.743,
2019-02-03, 00:43:06,VALID,919.026,VALID,0.0,VALID,98.778,VALID,-0.002,VALID,20.873,VALID,56.0,VALID,1.573,
2019-02-03, 00:44:06,VALID,919.01,VALID,0.0,VALID,98.803,VALID,-0.007,VALID,20.872,VALID,60.0,VALID,0.953,
2019-02-03, 00:45:06,VALID,918.998,VALID,0.0,VALID,98.812,VALID,-0.014,VALID,20.886,VALID,57.0,VALID,0.703,
2019-02-03, 00:46:06,VALID,918.979,VALID,0.0,VALID,98.811,VALID,-0.026,VALID,20.887,VALID,64.0,VALID,0.332,
2019-02-03, 00:47:06,VALID,918.978,VALID,0.0,VALID,98.82,VALID,-0.012,VALID,20.877,VALID,67.0,VALID,0.465,
2019-02-03, 00:48:06,VALID,919.004,VALID,0.0,VALID,98.822,VALID,-0.029,VALID,20.868,INVALID,360.0,VALID,0.015,
2019-02-03, 00:49:06,VALID,918.992,VALID,0.0,VALID,98.798,VALID,-0.023,VALID,20.85,INVALID,360.0,VALID,0.0,
2019-02-03, 00:50:06,VALID,918.988,VALID,0.0,VALID,98.817,VALID,-0.016,VALID,20.858,INVALID,360.0,VALID,0.96,
2019-02-03, 00:51:06,VALID,918.993,VALID,0.0,VALID,98.828,VALID,-0.034,VALID,20.859,VALID,53.0,VALID,1.121,
2019-02-03, 00:52:06,VALID,918.962,VALID,0.0,VALID,98.781,VALID,-0.035,VALID,20.824,VALID,50.0,VALID,1.214,
2019-02-03, 00:53:06,VALID,918.925,VALID,0.0,VALID,98.806,VALID,-0.019,VALID,20.838,VALID,49.0,VALID,0.87,
2019-02-03, 00:54:06,VALID,918.898,VALID,0.0,VALID,98.828,VALID,-0.012,VALID,20.847,VALID,51.0,VALID,1.121,
2019-02-03, 00:55:06,VALID,918.865,VALID,0.0,VALID,98.799,VALID,-0.031,VALID,20.83,VALID,53.0,VALID,0.991,
2019-02-03, 00:56:06,VALID,918.857,VALID,0.0,VALID,98.761,VALID,-0.01,VALID,20.793,VALID,54.0,VALID,0.963,
2019-02-03, 00:57:06,VALID,918.819,VALID,0.0,VALID,98.723,VALID,-0.013,VALID,20.748,VALID,53.0,VALID,0.961,
2019-02-03, 00:58:06,VALID,918.818,VALID,0.0,VALID,98.718,VALID,0.005,VALID,20.734,VALID,50.0,VALID,0.798,
2019-02-03, 00:59:06,VALID,918.772,VALID,0.0,VALID,98.698,VALID,0.016,VALID,20.709,VALID,47.0,VALID,0.607,
2019-02-03, 01:00:06,VALID,918.784,VALID,0.0,VALID,98.713,VALID,0.001,VALID,20.706,VALID,47.0,VALID,0.593,
2019-02-03, 01:01:06,VALID,918.767,VALID,0.0,VALID,98.729,VALID,0.005,VALID,20.742,VALID,49.0,VALID,0.731,
2019-02-03, 01:02:06,VALID,918.744,VALID,0.0,VALID,98.772,VALID,-0.009,VALID,20.791,VALID,55.0,VALID,0.533,
2019-02-03, 01:03:06,VALID,918.743,VALID,0.0,VALID,98.715,VALID,0.008,VALID,20.778,VALID,58.0,VALID,0.426,
2019-02-03, 01:04:06,VALID,918.722,VALID,0.0,VALID,98.675,VALID,0.008,VALID,20.777,INVALID,360.0,VALID,0.05,
2019-02-03, 01:05:06,VALID,918.717,VALID,0.0,VALID,98.625,VALID,-0.005,VALID,20.788,INVALID,360.0,VALID,0.003,
2019-02-03, 01:06:06,VALID,918.712,VALID,0.0,VALID,98.535,VALID,0.002,VALID,20.765,INVALID,360.0,VALID,0.0,
2019-02-03, 01:07:06,VALID,918.712,VALID,0.0,VALID,98.5,VALID,-0.007,VALID,20.779,INVALID,360.0,VALID,0.0,
2019-02-03, 01:08:06,VALID,918.701,VALID,0.0,VALID,98.406,VALID,0.005,VALID,20.776,INVALID,360.0,VALID,0.0,
2019-02-03, 01:09:06,VALID,918.718,VALID,0.0,VALID,98.26,VALID,0.011,VALID,20.736,INVALID,360.0,VALID,0.0,
2019-02-03, 01:10:06,VALID,918.712,VALID,0.0,VALID,98.195,VALID,0.003,VALID,20.738,INVALID,360.0,VALID,0.0,
2019-02-03, 01:11:06,VALID,918.718,VALID,0.0,VALID,97.993,VALID,0.009,VALID,20.725,INVALID,360.0,VALID,0.0,
2019-02-03, 01:12:06,VALID,918.73,VALID,0.0,VALID,97.87,VALID,-0.015,VALID,20.729,INVALID,360.0,VALID,0.0,
2019-02-03, 01:13:06,VALID,918.725,VALID,0.0,VALID,97.798,VALID,-0.024,VALID,20.753,INVALID,360.0,VALID,0.0,
2019-02-03, 01:14:06,VALID,918.732,VALID,0.0,VALID,97.676,VALID,-0.034,VALID,20.75,INVALID,360.0,VALID,0.0,
2019-02-03, 01:15:06,VALID,918.712,VALID,0.0,VALID,97.565,VALID,-0.028,VALID,20.72,INVALID,360.0,VALID,0.0,
2019-02-03, 01:16:06,VALID,918.732,VALID,0.0,VALID,97.388,VALID,-0.023,VALID,20.683,INVALID,360.0,VALID,0.0,
2019-02-03, 01:17:06,VALID,918.73,VALID,0.0,VALID,97.298,VALID,-0.024,VALID,20.68,INVALID,360.0,VALID,0.0,
2019-02-03, 01:18:06,VALID,918.726,VALID,0.0,VALID,97.238,VALID,-0.028,VALID,20.657,INVALID,360.0,VALID,0.0,
2019-02-03, 01:19:06,VALID,918.722,VALID,0.0,VALID,97.229,VALID,-0.027,VALID,20.646,INVALID,360.0,VALID,0.0,
2019-02-03, 01:20:06,VALID,918.75,VALID,0.0,VALID,97.235,VALID,-0.017,VALID,20.598,INVALID,360.0,VALID,0.051,
2019-02-03, 01:21:06,VALID,918.739,VALID,0.0,VALID,97.544,VALID,-0.008,VALID,20.649,VALID,34.0,VALID,1.028,
2019-02-03, 01:22:06,VALID,918.723,VALID,0.0,VALID,97.727,VALID,0.001,VALID,20.668,VALID,32.0,VALID,1.042,
2019-02-03, 01:23:06,VALID,918.706,VALID,0.0,VALID,97.84,VALID,-0.01,VALID,20.655,VALID,30.0,VALID,1.057,
2019-02-03, 01:24:06,VALID,918.705,VALID,0.0,VALID,98.001,VALID,-0.015,VALID,20.659,VALID,32.0,VALID,0.779,
2019-02-03, 01:25:06,VALID,918.69,VALID,0.0,VALID,98.097,VALID,-0.002,VALID,20.66,VALID,32.0,VALID,0.775,
2019-02-03, 01:26:06,VALID,918.686,VALID,0.0,VALID,98.175,VALID,0.013,VALID,20.675,VALID,29.0,VALID,1.058,
2019-02-03, 01:27:06,VALID,918.681,VALID,0.0,VALID,98.341,VALID,0.0,VALID,20.729,VALID,25.0,VALID,0.514,
2019-02-03, 01:28:07,VALID,918.685,VALID,0.0,VALID,98.397,VALID,0.003,VALID,20.751,VALID,36.0,VALID,0.365,
2019-02-03, 01:29:07,VALID,918.685,VALID,0.0,VALID,98.399,VALID,-0.022,VALID,20.745,VALID,44.0,VALID,0.549,
2019-02-03, 01:30:07,VALID,918.678,VALID,0.0,VALID,98.399,VALID,-0.006,VALID,20.728,VALID,42.0,VALID,0.596,
2019-02-03, 01:31:07,VALID,918.671,VALID,0.0,VALID,98.462,VALID,-0.009,VALID,20.735,VALID,43.0,VALID,0.592,
2019-02-03, 01:32:07,VALID,918.666,VALID,0.0,VALID,98.465,VALID,0.0,VALID,20.736,VALID,46.0,VALID,0.541,
2019-02-03, 01:33:07,VALID,918.646,VALID,0.0,VALID,98.511,VALID,0.001,VALID,20.736,VALID,45.0,VALID,0.711,
2019-02-03, 01:34:07,VALID,918.644,VALID,0.0,VALID,98.519,VALID,-0.006,VALID,20.728,VALID,46.0,VALID,0.689,
2019-02-03, 01:35:07,VALID,918.62,VALID,0.0,VALID,98.516,VALID,0.005,VALID,20.695,VALID,48.0,VALID,0.612,
2019-02-03, 01:36:07,VALID,918.607,VALID,0.0,VALID,98.48,VALID,0.009,VALID,20.651,VALID,47.0,VALID,0.492,
2019-02-03, 01:37:07,VALID,918.606,VALID,0.0,VALID,98.508,VALID,-0.004,VALID,20.641,VALID,47.0,VALID,0.159,
2019-02-03, 01:38:07,VALID,918.598,VALID,0.0,VALID,98.545,VALID,0.015,VALID,20.653,INVALID,360.0,VALID,0.051,
2019-02-03, 01:39:07,VALID,918.603,VALID,0.0,VALID,98.573,VALID,-0.005,VALID,20.663,INVALID,360.0,VALID,0.0,
2019-02-03, 01:40:07,VALID,918.618,VALID,0.0,VALID,98.591,VALID,0.003,VALID,20.681,INVALID,360.0,VALID,0.0,
2019-02-03, 01:41:07,VALID,918.591,VALID,0.0,VALID,98.6,VALID,-0.005,VALID,20.695,INVALID,360.0,VALID,0.0,
2019-02-03, 01:42:07,VALID,918.586,VALID,0.0,VALID,98.603,VALID,-0.001,VALID,20.709,INVALID,360.0,VALID,0.0,
2019-02-03, 01:43:07,VALID,918.58,VALID,0.0,VALID,98.645,VALID,0.009,VALID,20.723,INVALID,360.0,VALID,0.0,
2019-02-03, 01:44:07,VALID,918.549,VALID,0.0,VALID,98.63,VALID,-0.005,VALID,20.713,INVALID,360.0,VALID,0.0,
2019-02-03, 01:45:07,VALID,918.531,VALID,0.0,VALID,98.616,VALID,0.002,VALID,20.705,INVALID,360.0,VALID,0.0,
2019-02-03, 01:46:07,VALID,918.514,VALID,0.0,VALID,98.626,VALID,0.013,VALID,20.705,INVALID,360.0,VALID,0.0,
2019-02-03, 01:47:07,VALID,918.49,VALID,0.0,VALID,98.61,VALID,0.016,VALID,20.681,INVALID,360.0,VALID,0.0,
2019-02-03, 01:48:07,VALID,918.456,VALID,0.0,VALID,98.567,VALID,0.008,VALID,20.64,INVALID,360.0,VALID,0.0,
2019-02-03, 01:49:07,VALID,918.438,VALID,0.0,VALID,98.597,VALID,0.018,VALID,20.648,INVALID,360.0,VALID,0.0,
2019-02-03, 01:50:07,VALID,918.427,VALID,0.0,VALID,98.644,VALID,0.006,VALID,20.682,INVALID,360.0,VALID,0.0,
2019-02-03, 01:51:07,VALID,918.432,VALID,0.0,VALID,98.643,VALID,-0.0,VALID,20.675,INVALID,360.0,VALID,0.0,
2019-02-03, 01:52:07,VALID,918.418,VALID,0.0,VALID,98.622,VALID,0.004,VALID,20.655,INVALID,360.0,VALID,0.0,
2019-02-03, 01:53:07,VALID,918.418,VALID,0.0,VALID,98.626,VALID,0.004,VALID,20.667,INVALID,360.0,VALID,0.0,
2019-02-03, 01:54:07,VALID,918.427,VALID,0.0,VALID,98.636,VALID,-0.006,VALID,20.678,VALID,47.0,VALID,0.453,
2019-02-03, 01:55:07,VALID,918.428,VALID,0.0,VALID,98.637,VALID,0.003,VALID,20.688,VALID,46.0,VALID,0.854,
2019-02-03, 01:56:07,VALID,918.405,VALID,0.0,VALID,98.62,VALID,0.015,VALID,20.665,VALID,45.0,VALID,1.047,
2019-02-03, 01:57:07,VALID,918.402,VALID,0.0,VALID,98.601,VALID,-0.01,VALID,20.63,VALID,45.0,VALID,0.911,
2019-02-03, 01:58:07,VALID,918.398,VALID,0.0,VALID,98.635,VALID,-0.009,VALID,20.659,VALID,46.0,VALID,0.773,
2019-02-03, 01:59:07,VALID,918.395,VALID,0.0,VALID,98.673,VALID,-0.019,VALID,20.694,VALID,47.0,VALID,0.684,
2019-02-03, 02:00:07,VALID,918.382,VALID,0.0,VALID,98.675,VALID,-0.01,VALID,20.714,VALID,46.0,VALID,0.469,
2019-02-03, 02:01:07,VALID,918.396,VALID,0.0,VALID,98.661,VALID,-0.01,VALID,20.712,VALID,46.0,VALID,0.427,
2019-02-03, 02:02:07,VALID,918.383,VALID,0.0,VALID,98.658,VALID,-0.01,VALID,20.7,VALID,46.0,VALID,0.394,
2019-02-03, 02:03:07,VALID,918.378,VALID,0.0,VALID,98.639,VALID,-0.001,VALID,20.706,VALID,46.0,VALID,0.4,
2019-02-03, 02:04:07,VALID,918.383,VALID,0.0,VALID,98.636,VALID,-0.005,VALID,20.696,VALID,46.0,VALID,0.431,
2019-02-03, 02:05:07,VALID,918.345,VALID,0.0,VALID,98.619,VALID,-0.005,VALID,20.697,VALID,46.0,VALID,0.668,
2019-02-03, 02:06:07,VALID,918.337,VALID,0.0,VALID,98.626,VALID,0.007,VALID,20.692,VALID,47.0,VALID,0.559,
2019-02-03, 02:07:07,VALID,918.31,VALID,0.0,VALID,98.637,VALID,0.007,VALID,20.689,VALID,50.0,VALID,0.675,
2019-02-03, 02:08:07,VALID,918.316,VALID,0.0,VALID,98.635,VALID,-0.018,VALID,20.697,VALID,51.0,VALID,0.397,
2019-02-03, 02:09:07,VALID,918.32,VALID,0.0,VALID,98.641,VALID,-0.01,VALID,20.697,VALID,51.0,VALID,0.659,
2019-02-03, 02:10:07,VALID,918.319,VALID,0.0,VALID,98.637,VALID,-0.012,VALID,20.698,VALID,51.0,VALID,0.801,
2019-02-03, 02:11:07,VALID,918.302,VALID,0.0,VALID,98.632,VALID,-0.011,VALID,20.699,VALID,52.0,VALID,0.532,
2019-02-03, 02:12:07,VALID,918.303,VALID,0.0,VALID,98.643,VALID,-0.011,VALID,20.701,VALID,49.0,VALID,0.282,
2019-02-03, 02:13:07,VALID,918.301,VALID,0.0,VALID,98.66,VALID,-0.017,VALID,20.721,VALID,48.0,VALID,0.005,
2019-02-03, 02:14:07,VALID,918.306,VALID,0.0,VALID,98.682,VALID,-0.02,VALID,20.747,VALID,49.0,VALID,0.0,
2019-02-03, 02:15:07,VALID,918.32,VALID,0.0,VALID,98.675,VALID,-0.028,VALID,20.763,VALID,49.0,VALID,0.0,
2019-02-03, 02:16:07,VALID,918.333,VALID,0.0,VALID,98.67,VALID,-0.017,VALID,20.754,VALID,49.0,VALID,0.0,
2019-02-03, 02:17:07,VALID,918.337,VALID,0.0,VALID,98.653,VALID,-0.016,VALID,20.745,VALID,49.0,VALID,0.0,
2019-02-03, 02:18:07,VALID,918.342,VALID,0.0,VALID,98.635,VALID,-0.018,VALID,20.721,VALID,46.0,VALID,0.117,
2019-02-03, 02:19:07,VALID,918.324,VALID,0.0,VALID,98.6,VALID,-0.021,VALID,20.675,VALID,42.0,VALID,0.129,
2019-02-03, 02:20:07,VALID,918.352,VALID,0.0,VALID,98.589,VALID,-0.017,VALID,20.661,VALID,41.0,VALID,0.05,
2019-02-03, 02:21:07,VALID,918.318,VALID,0.0,VALID,98.631,VALID,-0.003,VALID,20.683,INVALID,360.0,VALID,0.037,
2019-02-03, 02:22:07,VALID,918.34,VALID,0.0,VALID,98.643,VALID,-0.017,VALID,20.699,VALID,39.0,VALID,0.119,
2019-02-03, 02:23:07,VALID,918.325,VALID,0.0,VALID,98.639,VALID,-0.038,VALID,20.702,INVALID,360.0,VALID,0.005,
2019-02-03, 02:24:07,VALID,918.324,VALID,0.0,VALID,98.648,VALID,-0.005,VALID,20.722,INVALID,360.0,VALID,0.0,
2019-02-03, 02:25:07,VALID,918.335,VALID,0.0,VALID,98.648,VALID,-0.005,VALID,20.729,INVALID,360.0,VALID,0.0,
2019-02-03, 02:26:07,VALID,918.326,VALID,0.0,VALID,98.653,VALID,-0.009,VALID,20.755,INVALID,360.0,VALID,0.0,
2019-02-03, 02:27:07,VALID,918.306,VALID,0.0,VALID,98.632,VALID,-0.007,VALID,20.734,INVALID,360.0,VALID,0.0,
2019-02-03, 02:28:07,VALID,918.317,VALID,0.0,VALID,98.622,VALID,-0.019,VALID,20.736,INVALID,360.0,VALID,0.0,
2019-02-03, 02:29:07,VALID,918.305,VALID,0.0,VALID,98.606,VALID,-0.022,VALID,20.724,INVALID,360.0,VALID,0.0,
2019-02-03, 02:30:07,VALID,918.279,VALID,0.0,VALID,98.583,VALID,-0.023,VALID,20.7,INVALID,360.0,VALID,0.0,
2019-02-03, 02:31:07,VALID,918.268,VALID,0.0,VALID,98.58,VALID,-0.014,VALID,20.698,INVALID,360.0,VALID,0.0,
2019-02-03, 02:32:07,VALID,918.268,VALID,0.0,VALID,98.588,VALID,-0.023,VALID,20.716,INVALID,360.0,VALID,0.0,
2019-02-03, 02:33:07,VALID,918.239,VALID,0.0,VALID,98.617,VALID,-0.019,VALID,20.741,INVALID,360.0,VALID,0.0,
2019-02-03, 02:34:07,VALID,918.232,VALID,0.0,VALID,98.598,VALID,-0.02,VALID,20.75,INVALID,360.0,VALID,0.0,
2019-02-03, 02:35:07,VALID,918.198,VALID,0.0,VALID,98.58,VALID,-0.027,VALID,20.746,INVALID,360.0,VALID,0.0,
2019-02-03, 02:36:07,VALID,918.187,VALID,0.0,VALID,98.551,VALID,-0.02,VALID,20.748,INVALID,360.0,VALID,0.0,
2019-02-03, 02:37:07,VALID,918.18,VALID,0.0,VALID,98.57,VALID,-0.012,VALID,20.753,INVALID,360.0,VALID,0.0,
2019-02-03, 02:38:07,VALID,918.15,VALID,0.0,VALID,98.56,VALID,-0.009,VALID,20.756,INVALID,360.0,VALID,0.0,
2019-02-03, 02:39:07,VALID,918.157,VALID,0.0,VALID,98.541,VALID,-0.015,VALID,20.751,INVALID,360.0,VALID,0.0,
2019-02-03, 02:40:07,VALID,918.148,VALID,0.0,VALID,98.535,VALID,-0.018,VALID,20.738,INVALID,360.0,VALID,0.0,
2019-02-03, 02:41:07,VALID,918.13,VALID,0.0,VALID,98.492,VALID,-0.01,VALID,20.728,INVALID,360.0,VALID,0.0,
2019-02-03, 02:42:07,VALID,918.137,VALID,0.0,VALID,98.466,VALID,-0.011,VALID,20.712,INVALID,360.0,VALID,0.0,
2019-02-03, 02:43:07,VALID,918.128,VALID,0.0,VALID,98.468,VALID,0.015,VALID,20.712,INVALID,360.0,VALID,0.0,
2019-02-03, 02:44:07,VALID,918.12,VALID,0.0,VALID,98.471,VALID,0.011,VALID,20.718,INVALID,360.0,VALID,0.001,
2019-02-03, 02:45:07,VALID,918.117,VALID,0.0,VALID,98.446,VALID,0.012,VALID,20.727,INVALID,360.0,VALID,0.018,
2019-02-03, 02:46:07,VALID,918.109,VALID,0.0,VALID,98.466,VALID,0.014,VALID,20.735,INVALID,360.0,VALID,0.0,
2019-02-03, 02:47:07,VALID,918.095,VALID,0.0,VALID,98.451,VALID,0.018,VALID,20.751,INVALID,360.0,VALID,0.0,
2019-02-03, 02:48:07,VALID,918.081,VALID,0.0,VALID,98.445,VALID,0.003,VALID,20.762,INVALID,360.0,VALID,0.0,
2019-02-03, 02:49:07,VALID,918.069,VALID,0.0,VALID,98.434,VALID,0.01,VALID,20.766,INVALID,360.0,VALID,0.0,
2019-02-03, 02:50:07,VALID,918.048,VALID,0.0,VALID,98.426,VALID,0.021,VALID,20.771,INVALID,360.0,VALID,0.0,
2019-02-03, 02:51:07,VALID,918.032,VALID,0.0,VALID,98.437,VALID,-0.007,VALID,20.787,INVALID,360.0,VALID,0.0,
2019-02-03, 02:52:07,VALID,917.999,VALID,0.0,VALID,98.438,VALID,0.009,VALID,20.799,INVALID,360.0,VALID,0.0,
2019-02-03, 02:53:07,VALID,917.98,VALID,0.0,VALID,98.445,VALID,0.026,VALID,20.819,INVALID,360.0,VALID,0.0,
2019-02-03, 02:54:07,VALID,917.942,VALID,0.0,VALID,98.434,VALID,0.013,VALID,20.84,INVALID,360.0,VALID,0.0,
2019-02-03, 02:55:07,VALID,917.921,VALID,0.0,VALID,98.412,VALID,0.021,VALID,20.842,INVALID,360.0,VALID,0.0,
2019-02-03, 02:56:07,VALID,917.906,VALID,0.0,VALID,98.304,VALID,0.036,VALID,20.79,INVALID,360.0,VALID,0.0,
2019-02-03, 02:57:07,VALID,917.883,VALID,0.0,VALID,98.283,VALID,0.008,VALID,20.77,INVALID,360.0,VALID,0.0,
2019-02-03, 02:58:07,VALID,917.873,VALID,0.0,VALID,98.252,VALID,-0.011,VALID,20.769,INVALID,360.0,VALID,0.0,
2019-02-03, 02:59:07,VALID,917.851,VALID,0.0,VALID,98.259,VALID,-0.015,VALID,20.783,INVALID,360.0,VALID,0.0,
2019-02-03, 03:00:07,VALID,917.841,VALID,0.0,VALID,98.264,VALID,-0.022,VALID,20.808,INVALID,360.0,VALID,0.0,
2019-02-03, 03:01:07,VALID,917.828,VALID,0.0,VALID,98.24,VALID,-0.006,VALID,20.809,INVALID,360.0,VALID,0.0,
2019-02-03, 03:02:07,VALID,917.824,VALID,0.0,VALID,98.21,VALID,0.005,VALID,20.811,INVALID,360.0,VALID,0.0,
2019-02-03, 03:03:07,VALID,917.809,VALID,0.0,VALID,98.24,VALID,-0.003,VALID,20.822,INVALID,360.0,VALID,0.0,
2019-02-03, 03:04:07,VALID,917.797,VALID,0.0,VALID,98.146,VALID,-0.023,VALID,20.782,INVALID,360.0,VALID,0.0,
2019-02-03, 03:05:07,VALID,917.785,VALID,0.0,VALID,98.109,VALID,-0.021,VALID,20.758,INVALID,360.0,VALID,0.0,
2019-02-03, 03:06:07,VALID,917.779,VALID,0.0,VALID,98.097,VALID,0.007,VALID,20.748,INVALID,360.0,VALID,0.0,
2019-02-03, 03:07:07,VALID,917.771,VALID,0.0,VALID,98.097,VALID,-0.006,VALID,20.748,INVALID,360.0,VALID,0.0,
2019-02-03, 03:08:07,VALID,917.745,VALID,0.0,VALID,98.125,VALID,0.004,VALID,20.757,INVALID,360.0,VALID,0.0,
2019-02-03, 03:09:07,VALID,917.748,VALID,0.0,VALID,98.173,VALID,0.01,VALID,20.783,INVALID,360.0,VALID,0.0,
2019-02-03, 03:10:07,VALID,917.724,VALID,0.0,VALID,98.196,VALID,0.008,VALID,20.815,INVALID,360.0,VALID,0.0,
2019-02-03, 03:11:07,VALID,917.721,VALID,0.0,VALID,98.18,VALID,-0.0,VALID,20.816,INVALID,360.0,VALID,0.0,
2019-02-03, 03:12:07,VALID,917.696,VALID,0.0,VALID,98.152,VALID,-0.005,VALID,20.796,INVALID,360.0,VALID,0.0,
2019-02-03, 03:13:07,VALID,917.694,VALID,0.0,VALID,98.103,VALID,-0.012,VALID,20.78,INVALID,360.0,VALID,0.0,
2019-02-03, 03:14:07,VALID,917.676,VALID,0.0,VALID,98.132,VALID,-0.007,VALID,20.788,INVALID,360.0,VALID,0.0,
2019-02-03, 03:15:07,VALID,917.663,VALID,0.0,VALID,98.151,VALID,-0.017,VALID,20.795,INVALID,360.0,VALID,0.0,
2019-02-03, 03:16:07,VALID,917.645,VALID,0.0,VALID,98.149,VALID,-0.02,VALID,20.802,INVALID,360.0,VALID,0.0,
2019-02-03, 03:17:07,VALID,917.634,VALID,0.0,VALID,98.142,VALID,-0.007,VALID,20.802,INVALID,360.0,VALID,0.0,
2019-02-03, 03:18:07,VALID,917.63,VALID,0.0,VALID,98.13,VALID,-0.008,VALID,20.792,INVALID,360.0,VALID,0.0,
2019-02-03, 03:19:07,VALID,917.648,VALID,0.0,VALID,98.072,VALID,-0.027,VALID,20.764,INVALID,360.0,VALID,0.0,
2019-02-03, 03:20:07,VALID,917.66,VALID,0.0,VALID,98.016,VALID,-0.023,VALID,20.726,INVALID,360.0,VALID,0.0,
2019-02-03, 03:21:07,VALID,917.652,VALID,0.0,VALID,98.038,VALID,-0.02,VALID,20.741,INVALID,360.0,VALID,0.0,
2019-02-03, 03:22:07,VALID,917.651,VALID,0.0,VALID,98.003,VALID,-0.025,VALID,20.738,INVALID,360.0,VALID,0.0,
2019-02-03, 03:23:07,VALID,917.66,VALID,0.0,VALID,98.016,VALID,-0.023,VALID,20.746,INVALID,360.0,VALID,0.0,
2019-02-03, 03:24:07,VALID,917.655,VALID,0.0,VALID,97.987,VALID,-0.027,VALID,20.734,INVALID,360.0,VALID,0.0,
2019-02-03, 03:25:07,VALID,917.637,VALID,0.0,VALID,97.956,VALID,-0.034,VALID,20.713,INVALID,360.0,VALID,0.0,
2019-02-03, 03:26:07,VALID,917.648,VALID,0.0,VALID,97.929,VALID,-0.029,VALID,20.693,INVALID,360.0,VALID,0.0,
2019-02-03, 03:27:07,VALID,917.655,VALID,0.0,VALID,97.952,VALID,-0.004,VALID,20.691,VALID,47.0,VALID,0.0,
2019-02-03, 03:28:07,VALID,917.642,VALID,0.0,VALID,97.968,VALID,0.009,VALID,20.688,INVALID,360.0,VALID,0.0,
2019-02-03, 03:29:07,VALID,917.638,VALID,0.0,VALID,97.971,VALID,0.001,VALID,20.665,INVALID,360.0,VALID,0.0,
2019-02-03, 03:30:07,VALID,917.648,VALID,0.0,VALID,97.975,VALID,-0.0,VALID,20.653,INVALID,360.0,VALID,0.0,
2019-02-03, 03:31:07,VALID,917.638,VALID,0.0,VALID,97.988,VALID,-0.013,VALID,20.649,INVALID,360.0,VALID,0.0,
2019-02-03, 03:32:07,VALID,917.643,VALID,0.0,VALID,98.011,VALID,-0.013,VALID,20.655,INVALID,360.0,VALID,0.0,
2019-02-03, 03:33:07,VALID,917.628,VALID,0.0,VALID,98.045,VALID,-0.013,VALID,20.657,INVALID,360.0,VALID,0.0,
2019-02-03, 03:34:07,VALID,917.649,VALID,0.0,VALID,98.06,VALID,-0.004,VALID,20.66,INVALID,360.0,VALID,0.0,
2019-02-03, 03:35:07,VALID,917.63,VALID,0.0,VALID,98.101,VALID,0.001,VALID,20.663,INVALID,360.0,VALID,0.0,
2019-02-03, 03:36:07,VALID,917.64,VALID,0.0,VALID,98.112,VALID,-0.001,VALID,20.646,INVALID,360.0,VALID,0.0,
2019-02-03, 03:37:07,VALID,917.631,VALID,0.0,VALID,98.147,VALID,0.004,VALID,20.655,INVALID,360.0,VALID,0.0,
2019-02-03, 03:38:07,VALID,917.647,VALID,0.0,VALID,98.195,VALID,-0.005,VALID,20.672,INVALID,360.0,VALID,0.0,